Regional Weather Roundup
Issued by NWS

Home | Current Version | Previous Version | Graphics & Text | Print | Product List | Glossary Off
Versions: 1 2 3 4 5 6 7 8 9 10 11 12 13 14 15 16 17 18 19 20 21 22 23 24 25 26 27 28 29 30 31 32 33 34 35 36 37 38 39 40 41 42 43 44 45 46 47 48 49 50

000
ASUS43 KDTX 290710
RWRMI
MICHIGAN HOURLY REGIONAL WEATHER ROUNDUP
NATIONAL WEATHER SERVICE DETROIT/PONTIAC MI
300 AM EDT SUN MAY 29 2016

NOTE: "FAIR" INDICATES FEW OR NO CLOUDS BELOW 12,000 FEET WITH NO
SIGNIFICANT WEATHER AND/OR OBSTRUCTION TO VISIBILITY.

MIZ047>049-052>055-059>063-066>070-074>076-081>083-290800-
SOUTHEAST LOWER MICHIGAN

CITY           SKY/WX    TMP DP  RH WIND       PRES   REMARKS
ADRIAN         CLOUDY    70  64  81 SW7       30.05F
ALMA           CLOUDY    70  64  81 S13       29.99S
ANN ARBOR      MOCLDY    67  62  84 S6        30.04S
BAD AXE        CLOUDY    70  65  82 S6        30.01S
CARO           CLOUDY    72  64  75 S5        30.00S
DETROIT CITY   CLEAR     71  62  73 S7        30.04F
DETROIT        MOCLDY    68  62  81 S5        30.05S
FLINT          CLOUDY    76  61  59 SW9       30.01F
GROSSE ILE     CLEAR     66  64  94 S5        30.04S
HILLSDALE      CLOUDY    69  64  84 S3        30.05F
HOWELL         CLOUDY    72  62  71 S6        30.03S

CITY           SKY/WX    TMP DP  RH WIND       PRES   REMARKS
JACKSON        CLOUDY    70  65  84 S7        30.03F
LAMBERTVILLE   CLEAR     70  63  77 S3        30.06F
LANSING        CLOUDY    70  65  84 S9        30.01S
LAPEER         FAIR      72  60  65 S6        30.03S
MASON          LGT RAIN  71  64  77 S5        30.03S
MONROE         CLEAR     68  63  84 S6        30.04F
MT. CLEMENS    CLOUDY    69  65  89 S6        30.03S
PONTIAC        CLOUDY    72  61  68 S6        30.03S
PORT HOPE        N/A     73  66  78 VRB3      29.98S
PORT HURON     CLOUDY    68  66  94 S6        30.04S
TRI CITIES     LGT RAIN  73  66  78 S9        30.00R
MIDLAND        LGT RAIN  70  65  83 S6        29.98S
TROY           CLEAR     72  64  78 S3        30.06S
SAGINAW HB     LGT RAIN  72  63  73 S9        29.99S
$$
MIZ043>046-050>051-056>058-064>065-071>073-077>080-290800-
SOUTHWEST LOWER MICHIGAN

CITY           SKY/WX    TMP DP  RH WIND       PRES   REMARKS
BATTLE CREEK   CLOUDY    70  64  81 S8        30.01F
BENTON HARBOR  MOCLDY    67  61  81 SW5       29.98F
BIG RAPIDS     PTCLDY    65  63  94 SE5       29.96F
COLDWATER      CLOUDY    72  64  75 S3        30.02F
FREMONT        FAIR      63  63  99 SE6       29.95F
HOLLAND        PTCLDY    64  58  80 SE5       29.98F
GRAND RAPIDS   PTCLDY    74  64  71 SW12      29.98F
IONIA          FAIR      71  62  72 S7        29.98F
KALAMAZOO      CLOUDY    70  63  78 S3        30.00F
LUDINGTON      CLEAR     60  58  90 SE5       29.91F
MARSHALL       CLOUDY    72  64  76 S5        30.01F
MOUNT PLEASANT CLOUDY    72  62  71 S6        29.97F
MUSKEGON       CLEAR     63  56  78 SE7       29.95F
SOUTH HAVEN    MOCLDY    67  60  79 CALM      29.98F
$$
MIZ016>042-290800-
NORTHERN LOWER MICHIGAN

CITY           SKY/WX    TMP DP  RH WIND       PRES   REMARKS
ALPENA         CLOUDY    70  63  78 CALM      29.95F
BEAVER ISLAND  PTCLDY    65  56  73 S7        29.88F
BELLAIRE       CLEAR     66  61  83 CALM      29.92F
CADILLAC       CLEAR     65  62  88 S5        29.96F
CHARLEVOIX     CLEAR     69  61  77 S7        29.92F
FRANKFORT      CLEAR     61  58  92 CALM      29.90F
GAYLORD        CLOUDY    69  62  78 SW9       29.97R
GRAYLING       CLOUDY    66  64  91 CALM      29.98S
HARBOR SPRINGS CLEAR     65  62  89 CALM      29.91F
HOUGHTON LAKE  CLOUDY    70  62  76 S8        29.98R
MANISTEE       CLEAR     61  57  88 E6        29.92F
OSCODA         LGT RAIN  70  65  82 S10       29.97S
PELLSTON       LGT RAIN  71  61  70 S6        29.91F
ROGERS CITY    CLOUDY    69  64  84 S7        29.95F
TRAVERSE CITY  PTCLDY    69  59  70 SE3       29.90F
$$
MIZ007>008-015-290800-
EASTERN UPPER MICHIGAN

CITY           SKY/WX    TMP DP  RH WIND       PRES   REMARKS
KINROSS          N/A     63  61  94 SE6       29.91S
MACKINAC ISLAN CLEAR     66  64  95 S6        29.91S
NEWBERRY       PTCLDY    63  60  93 S13       29.88F
S. S. MARIE    PTCLDY    63  60  90 E3        29.91F
MUNISING         N/A     64  58  80 S8        29.82S
$$
MIZ004>006-011>014-085-290800-
CENTRAL UPPER MICHIGAN

CITY           SKY/WX    TMP DP  RH WIND       PRES   REMARKS
MANISTIQUE     PTCLDY    54  53  97 S5        29.87R
ESCANABA       CLOUDY    63  57  82 SW7       29.84S
MENOMINEE      CLOUDY    64  61  88 SW7       29.85F
SAWYER-GWINN   CLOUDY    62  59  91 S9        29.83F
$$
MIZ001>003-009>011-084-290800-
WESTERN UPPER MICHIGAN

CITY           SKY/WX    TMP DP  RH WIND       PRES   REMARKS
IRON MOUNTAIN  CLOUDY    63  60  90 S8        29.83S
HOUGHTON       LGT RAIN  58  56  93 NW8       29.80F
COPPER HARBOR    N/A     46  46 100 NE3       29.80S
IRONWOOD       CLOUDY    57  55  94 NW5       29.76R
$$

ABBREVIATIONS USED IN REMARKS
   TC - TEMPERATURE IN CELSIUS
  WCI - WIND CHILL INDEX
   HX - HEAT INDEX
  VSB - VISIBILITY




USA.gov is the U.S. government's official web portal to all federal, state and local government web resources and services.